INMARSAT 5-F3

Last updated on Sat Apr 13 2024 01:02:38 GMT+0100 (British Summer Time)

1 40882U 15042A 24103.27013345 .00000042 00000+0 00000+0 0 9993 2 40882 0.0153 195.1033 0000364 64.4262 218.2623 1.00271950 31588
UTC large
Height (km)
Speed (km/s)
/
Latitude / Longitude
Inclination (degrees)
Orbital Period (minutes)
Azimuth
Elevation
Range (km)
Doppler Factor

Next 0 passes for location: London (51.5072 / 0.1276)

Sorry there are no passes over London.